Regional Weather Roundup
Issued by NWS

Home | Current Version | Previous Version | Text Only | Print | Product List | Glossary On
Versions: 1 2 3 4 5 6 7 8 9 10 11 12 13 14 15 16 17 18 19 20 21 22 23 24 25 26 27 28 29 30 31 32 33 34 35 36 37 38 39 40 41 42 43 44 45 46 47 48 49 50
000
ASUS42 KTBW 242217
RWRFL
FLORIDA REGIONAL WEATHER ROUNDUP
NATIONAL WEATHER SERVICE TAMPA BAY RUSKIN FL
600 PM EDT FRI MAR 24 2017

NOTE: "FAIR" INDICATES FEW OR NO CLOUDS BELOW 12,000 FEET WITH NO
SIGNIFICANT WEATHER AND/OR OBSTRUCTIONS TO VISIBILITY.

FLZ001>010-012>015-112-114-115-242300-
PANHANDLE FLORIDA

CITY           SKY/WX    TMP DP  RH WIND       PRES   REMARKS
PENSACOLA      CLOUDY    71  61  70 SE16      30.25F
MILTON NAS     PTSUNNY   70  58  65 S17       30.26
CRESTVIEW      MOSUNNY   75  55  49 S8        30.26S
DUKE FIELD     PTSUNNY   73  55  52 S17G24    30.26R
VALPARAISO     PTSUNNY   73  57  57 SE16G24   30.26F
MARY ESTHER    MOSUNNY   70  58  66 SE17G23   30.25F
PANAMA CITY    FAIR      74  56  53 S14G24    30.25S
TYNDALL AFB    SUNNY     75  54  46 S14       30.25S
APALACHICOLA   SUNNY     72  57  59 SE10      30.25F

STATION/POSITION SKY/WX   TEMP    WIND        PRES    WAVE   SWELL
                          AIR SEA DIR/SP/G            HT/PER HT/PER
                          (F)     (DEG/KT/KT) (MB)    (FT/S) (FT/S)
30.1N   87.6W              69 69  120/ 16/ 19 1023.5F   6/ 8   3/ 8
29.2N   88.2W              72 73  120/ 19/ 23 1022.5F   8/ 8
28.8N   86.0W              70 71              1023.7F   6/ 7
PANAMA CITY BEAC           69 71  160/ 17/ 21 1024.8S
TOWER C                    68     110/  6/  6 1024.8F
28.5N   84.5W              70 69   80/ 10/ 14 1023.3F   3/ 5   2/ 5

$$
FLZ011-016>038-118-127-128-134-139-239-242300-
NORTH FLORIDA

CITY           SKY/WX    TMP DP  RH WIND       PRES   REMARKS
MARIANNA       MOSUNNY   79  52  38 SE6       30.22F
TALLAHASSEE    PTSUNNY   81  49  32 E13       30.23F
PERRY          MOSUNNY   81  48  31 SE13G20   30.25S
CROSS CITY     SUNNY     79  50  36 SE10G18   30.24F
LAKE CITY      PTSUNNY   73  50  43 E9G16     30.28F
GAINESVILLE    PTSUNNY   75  52  44 E13       30.27F
WILLISTON      SUNNY     79  54  41 E13       30.26S
PALATKA        CLOUDY    72  55  56 E14       30.30F
MAYPORT NAS    PTSUNNY   70  57  63 E10       30.32F
JACKSONVILLE   PTSUNNY   71  54  54 E21G26    30.31F
JAX NAS        PTSUNNY   72  56  57 E21       30.32F
FERNANDINA BEA FAIR      72  59  64 E8        30.32F
ST AUGUSTINE   PTSUNNY   70  60  70 E12       30.32F
PALM COAST     PTSUNNY   73  55  53 E14G23    30.30F

STATION/POSITION SKY/WX   TEMP    WIND        PRES    WAVE   SWELL
                          AIR SEA DIR/SP/G            HT/PER HT/PER
                          (F)     (DEG/KT/KT) (MB)    (FT/S) (FT/S)
SHELL POINT      NOT AVBL
KEATON BEACH               69     270/  7/  8 1023.7F
CEDAR KEY                  73     140/  6/  8 1024.6F
FERNANDINA                 72 65   90/  5/  8 1027.8F
30.7N   81.3W                 64                N/A     5/ 6
MAYPORT                    69 65  110/  7/ 11 1027.3F
31.4N   80.9W              65 63   90/  8/ 10 1027.5F   5/ 6   5/ 6
ST AUGUSTINE               67 67   70/  6/  6 1027.3F

$$
FLZ040-043>046-052-053-057-058-063-144-242300-
INTERIOR CENTRAL FLORIDA

CITY           SKY/WX    TMP DP  RH WIND       PRES   REMARKS
OCALA          MOSUNNY   75  54  46 E8G16     30.27F
THE VILLAGES     N/A     77  57  50 MISG      30.16F
LEESBURG       CLOUDY    74  55  51 E10       30.27S
SANFORD        CLOUDY    75  51  43 E16       30.28F
ORLANDO EXEC   PTSUNNY   75  54  47 E17       30.26F
ORLANDO INTL   PTSUNNY   76  54  46 E18       30.26F
KISSIMMEE      MOSUNNY   75  56  51 E18       30.26F
WINTER HAVEN   PTSUNNY   75  55  49 E16       30.25S
LAKELAND       MOSUNNY   75  55  50 E9G17     30.23
BARTOW         PTSUNNY   73  55  53 E20G28    30.24S
OKEECHOBEE     MOSUNNY  N/A N/A N/A E8G23     30.24F

$$
FLZ041-047-054-059-064-141-147-242300-
EAST CENTRAL FLORIDA

CITY           SKY/WX    TMP DP  RH WIND       PRES   REMARKS
ORMOND BEACH   MOSUNNY   72  57  60 E12G18    30.30F
DAYTONA BEACH  MOSUNNY   71  59  65 E10G22    30.30S
DELAND         CLOUDY    73  54  49 E12       30.28F
NEW SMYRNA BEA MOSUNNY   73  57  56 E13G23    30.31F
JFK SPACE CTR  PTSUNNY   72  59  63 E13       30.27F
TITUSVILLE     PTSUNNY   72  55  56 E17G25    30.28F
CAPE CANAVERAL PTSUNNY   75  59  57 E16       30.26F
PATRICK AFB    SUNNY     73  59  61 E14       30.26F
MELBOURNE      PTSUNNY   75  58  55 E16       30.26F
VERO BEACH     CLOUDY    74  57  55 E15       30.26F
FT PIERCE      PTSUNNY   73  58  59 E16G22    30.24F

STATION/POSITION SKY/WX   TEMP    WIND        PRES    WAVE   SWELL
                          AIR SEA DIR/SP/G            HT/PER HT/PER
                          (F)     (DEG/KT/KT) (MB)    (FT/S) (FT/S)
TRIDENT PIER               73 70   70/ 12/ 19 1026.4F
28.4N   80.5W                 70                N/A     5/ 8   2/11
27.5N   80.2W                 70                N/A     8/10   3/11

$$
FLZ050-056-061-142-242-148-248-149-249-151-251-155-255-
160-260-242300-
WEST CENTRAL FLORIDA

CITY           SKY/WX    TMP DP  RH WIND       PRES   REMARKS
CRYSTAL RIVER  FAIR      79  54  41 E8        30.24S
INVERNESS      PTSUNNY   73  57  56 E13G20    30.26S
BROOKSVILLE    PTSUNNY   80  53  39 E10G17    30.23F
CLEARWATER AIR FAIR      79  50  36 E9        30.21F
ST PETE CLEARW SUNNY     79  56  45 E9        30.20F
TAMPA INTL     MOSUNNY   80  50  34 E6        30.21F
TAMPA EXEC     PTSUNNY   82  50  32 E10       30.22F
PLANT CITY     PTSUNNY   81  54  39 E13       30.24F
MACDILL AFB    SUNNY     81  49  33 E13       30.20F
PETER O KNIGHT CLOUDY    82  54  36 E10G16    30.21F
ST PETERSBURG  SUNNY     74  61  63 E10       30.19F
SARASOTA       MOSUNNY   79  51  37 E14G23    30.17F
VENICE         FAIR      81  55  41 E13       30.18S

STATION/POSITION SKY/WX   TEMP    WIND        PRES    WAVE   SWELL
                          AIR SEA DIR/SP/G            HT/PER HT/PER
                          (F)     (DEG/KT/KT) (MB)    (FT/S) (FT/S)
27.3N   84.2W                 71                N/A     4/ 5
CLEARWATER BEACH NOT AVBL
MIDDLE TAMPA BAY           75     100/ 14/ 19 1022.9F
VENICE                     81 70   70/ 11/ 14 1021.8F

$$
FLZ066-069-070-075>078-162-262-165-265-242300-
SOUTHWEST FLORIDA AND KEYS

CITY           SKY/WX    TMP DP  RH WIND       PRES   REMARKS
PUNTA GORDA    MOSUNNY   81  54  39 E12       30.19S
FT MYERS       MOSUNNY   80  59  48 E16G24    30.17S
SOUTHWEST INTL MOSUNNY   79  59  50 E22G31    30.17F
NAPLES         PTSUNNY   80  60  50 E15       30.15S
IMMOKALEE      FAIR      79  59  50 E16G25    30.16F
MARATHON       PTSUNNY   78  67  68 NE17G28   30.14F
KEY WEST NAS   PTSUNNY   77  66  68 E21G29    30.14S
KEY WEST INTL  MOSUNNY   78  67  68 E16G25    30.14F

STATION/POSITION SKY/WX   TEMP    WIND        PRES    WAVE   SWELL
                          AIR SEA DIR/SP/G            HT/PER HT/PER
                          (F)     (DEG/KT/KT) (MB)    (FT/S) (FT/S)
NAPLES                        71              1021.1S
26.0N   85.6W              73 73  100/ 17/ 21 1021.1F   7/ 7
DRY TORTUGAS               74      80/ 21/ 23 1020.3F
SAND KEY                   76      90/ 23/ 26 1020.8F
LONG KEY                   73 75   60/ 20/ 22 1021.6F
MOLASSES REEF              74 76   90/ 23     1021.5F

$$
FLZ067-068-071>074-168-172>174-242300-
SOUTHEAST FLORIDA

CITY           SKY/WX    TMP DP  RH WIND       PRES   REMARKS
W PALM BEACH   PTSUNNY   74  57  55 E18G25    30.23F
BOCA RATON     CLOUDY    73  63  68 E15G25    30.22S
FT LAUDER-EXEC PTSUNNY   77  59  53 E22G28    30.20F
FT LAUDERDALE  PTSUNNY   75  60  59 E21       30.19F
POMPANO BEACH  CLOUDY    75  61  61 E16G25    30.21S
PEMBROKE PINES MOSUNNY   76  60  57 E15G24    30.21F
OPA LOCKA      MOSUNNY   77  61  57 E24G31    30.20F
MIAMI          PTSUNNY   75  62  64 NE17G24   30.19F
WEST KENDALL   PTSUNNY   77  62  59 E22G30    30.19S
HOMESTEAD      PTSUNNY   70  68  94 NE15G23   30.18S

STATION/POSITION SKY/WX   TEMP    WIND        PRES    WAVE   SWELL
                          AIR SEA DIR/SP/G            HT/PER HT/PER
                          (F)     (DEG/KT/KT) (MB)    (FT/S) (FT/S)
PORT EVERGLADES            74      70/ 13/ 19 1022.9F
VIRGINIA KEY               74      70/ 20/ 25 1022.5F
LAKE WORTH                         70/ 19/ 23   N/A
FOWEY ROCKS                73 76   60/ 26/ 29 1022.8F
SETTLEMENT POINT           71      70/ 22/ 25 1024.0F

$$




USA.gov is the U.S. government's official web portal to all federal, state and local government web resources and services.